Content
SEND FEEDBACK

Daily
Averages
Monthly
Summary
United States of America

WOODCLIFF LAKE, NEW JERSEY


Home > North America > United States > New Jersey
Elevation: 100 feet     Latitude: 41 01N     Longitude: 074 03W

WEATHER
 
SELECT A DAY
Number of Records: 349,494;   Date Range: 1/1/95 - 10/22/14
 
SHARE

PRINT THIS DATA

[ ← Previous Day ]
WEATHER ALMANAC - JANUARY 31, 2013
[ Next Day → ]
[ °C ]   °F
Weather ElementAverageHighLow
Temperature46.6 °F61 °F (1:51 am)30 °F (10:51 pm)
Dewpoint32.5 °F59 °F (4:14 am)9 °F (10:51 pm)
Humidity60.6 %96 % (3:51 am)36 % (3:51 pm)
Barometer29.36 in29.78 in (11:51 pm)29.03 in (5:51 am)
Wind Speed21.4 mph31.1 mph (2:51 am)
Wind Gust46 mph (2:51 am)
Weather ElementAverage
Visibility8.6 mi
Wind DirectionWSW (246.7 °)

Weather ElementTotal
Precipitation1.63 in
Heating Degree Days19.5 (Base 65)
Averaged from 30 records on January 31, 2013
WEATHER CONDITIONS BREAKOUT
WIND DIRECTION BREAKOUT
WEATHER BY HOUR - JANUARY 31, 2013
[ °C ]   °F
Local TimeTemperatureDewpointHumidityBarometerVisibilityWind DirectionWind SpeedGust SpeedPrecipitationEventsConditions
1:51 AM61.0 °F57.9 °F90 %29.19 in9.0 miSouth (170°)18.4 mph28.8 mph0.09 inRainRain
2:51 AM61.0 °F57.9 °F90 %29.12 in9.0 miSouth (180°)31.1 mph46.0 mph0.06 inRainRain
3:51 AM59.0 °F57.9 °F96 %29.04 in3.0 miSouth (180°)24.2 mph32.2 mph0.24 inRainRain
4:06 AM59.0 °F57.2 °F94 %29.11 in1.5 miWSW (250°)23.0 mph36.8 mph0.07 inRainHeavy Rain
4:14 AM60.8 °F59.0 °F94 %29.11 in1.5 miSW (230°)16.1 mph29.9 mph0.30 inRainHeavy Rain
4:28 AM60.8 °F57.2 °F88 %29.12 in5.0 miSSW (210°)19.6 mph27.6 mph0.33 inRainHeavy Rain
4:51 AM60.1 °F54.0 °F80 %29.10 in9.0 miSW (230°)17.3 mph29.9 mph0.36 inRainRain
5:51 AM57.9 °F54.0 °F87 %29.03 in10.0 miSouth (190°)12.7 mph0.05 inMostly Cloudy
6:37 AM57.2 °F53.6 °F88 %29.06 in7.0 miSW (230°)15.0 mph0.03 inRainLight Rain
6:44 AM55.4 °F51.8 °F88 %29.10 in3.0 miWest (270°)23.0 mph40.3 mph0.05 inRainRain
6:51 AM52.0 °F46.9 °F83 %29.12 in10.0 miWest (280°)24.2 mph38.0 mph0.05 inRainLight Rain
7:51 AM48.9 °F36.0 °F61 %29.19 in10.0 miWest (270°)25.3 mph36.8 mph0.00 inOvercast
8:21 AM48.2 °F30.2 °F50 %29.24 in10.0 miWest (260°)20.7 mph40.3 mphOvercast
8:51 AM46.0 °F28.9 °F51 %29.27 in10.0 miWest (270°)29.9 mph42.6 mphScattered Clouds
9:20 AM44.6 °F26.6 °F49 %29.31 in10.0 miWest (260°)27.6 mph41.4 mphPartly Cloudy
9:51 AM44.1 °F26.1 °F49 %29.35 in10.0 miWest (280°)21.9 mph39.1 mphScattered Clouds
10:51 AM43.0 °F21.0 °F42 %29.39 in10.0 miWest (260°)25.3 mph36.8 mphPartly Cloudy
11:51 AM44.1 °F21.9 °F42 %29.41 in10.0 miWest (280°)23.0 mph40.3 mphPartly Cloudy
12:51 PM45.0 °F19.9 °F37 %29.42 in10.0 miWest (260°)21.9 mph38.0 mphPartly Cloudy
1:51 PM43.0 °F19.0 °F38 %29.44 in10.0 miWest (260°)28.8 mph41.4 mphPartly Cloudy
2:51 PM44.1 °F19.9 °F38 %29.48 in10.0 miWSW (250°)23.0 mph35.7 mphMostly Cloudy
3:51 PM41.0 °F16.0 °F36 %29.52 in10.0 miWest (260°)21.9 mph31.1 mphScattered Clouds
4:51 PM37.9 °F15.1 °F39 %29.58 in10.0 miWest (260°)23.0 mph36.8 mphPartly Cloudy
5:51 PM35.1 °F16.0 °F46 %29.65 in10.0 miWest (260°)19.6 mph32.2 mphPartly Cloudy
6:51 PM34.0 °F12.9 °F42 %29.69 in10.0 miWest (260°)21.9 mph27.6 mphClear
7:51 PM33.1 °F14.0 °F46 %29.71 in10.0 miWest (260°)13.8 mph26.5 mphPartly Cloudy
8:51 PM32.0 °F15.1 °F50 %29.73 in10.0 miWest (260°)16.1 mph27.6 mphClear
9:51 PM30.9 °F10.0 °F42 %29.75 in10.0 miWSW (250°)18.4 mph31.1 mphClear
10:51 PM30.0 °F9.0 °F41 %29.77 in10.0 miWest (260°)18.4 mph28.8 mphClear
11:51 PM30.0 °F9.0 °F41 %29.78 in10.0 miWest (260°)16.1 mph21.9 mphClear
Hourly data recorded from KTEB, located miles away from Woodcliff Lake, New Jersey







STORIES FROM OUR PARTNERS